Torna al catalogo

STARLINK-34011

AttivoComunicazioniVLEO
NORAD 63845·PAYLOAD·🇺🇸 United States

Lanciato May 7, 2025 da Cape Canaveral Space Force Station

Loading…

Prossimi Passaggi (prossime 24 ore)

TLE

AggiornatoSource: CelesTrak SupGP

Epoca: Sep 14, 2026, 20:57 UTC

1 63845C 25093K   26257.87340278  .00020650  00000+0  74805-3 0  2572
2 63845  42.9992  89.8980 0001346 274.0499 341.4732 15.27563069    13

Traccia STARLINK-34011 in tempo reale con AllMySat

Download on the App Store